RH
3 3 3 3 3 3 3 3 3 3 3 3 3 3 3 3 3 3 3 3 3 2 2 2 2 2 2 2 2 2 2 2 2 2 2 2 2 3 2 2 2 2 2 2 3 3 3 3 3 3 4 4 5 7 9 10 10 8 8 9 10 11 11 12 14 17 19 21 22 24 25 27 29 30 30 28 24 20 21 23 27 32 37 39 40
3 3 3 3 3 3 3 3 3 3 3 3 2 2 2 2 2 2 2 2 2 2 2 2 2 2 2 2 2 2 2 2 2 2 2 2 2 2 2 3 2 2 2 2 2 3 3 3 3 3 3 4 4 5 7 9 10 9 8 8 8 10 10 11 12 15 18 20 21 22 23 25 27 29 32 34 31 26 22 21 23 26 30 35 38
3 3 3 3 3 2 2 2 2 2 2 2 2 2 2 2 2 2 2 2 2 2 2 2 2 2 2 2 2 2 2 2 2 2 2 2 2 2 2 2 2 2 2 2 2 2 2 3 3 3 3 3 4 4 5 7 9 9 9 7 7 8 9 10 10 12 15 18 19 20 21 23 25 27 30 34 36 33 28 24 22 23 24 27 32
3 2 2 2 2 2 2 2 2 2 2 2 2 2 2 2 2 2 2 2 2 2 2 2 2 2 2 2 2 2 2 2 2 2 2 2 2 2 2 2 2 2 2 2 2 2 3 3 3 3 3 2 3 3 4 5 7 9 9 8 8 7 8 9 9 10 11 14 17 18 19 20 22 24 27 30 34 35 34 30 26 24 24 24 27
2 2 2 2 2 2 2 2 2 2 2 2 2 2 2 2 2 2 2 2 2 2 2 2 2 2 2 2 2 2 2 2 2 2 2 2 2 2 2 2 2 2 2 2 2 2 2 3 3 3 3 2 3 3 3 4 5 7 8 8 8 8 7 8 8 9 10 11 13 15 17 18 19 21 24 26 29 32 34 35 32 28 26 25 26
2 2 2 2 2 2 2 2 2 2 2 2 2 2 2 2 2 2 2 2 2 2 2 2 2 2 2 2 2 2 2 2 2 2 2 2 2 2 2 2 2 2 2 2 2 2 2 2 3 3 3 3 3 3 3 3 4 5 7 8 8 8 8 7 7 8 9 9 10 12 14 16 17 19 21 24 26 29 31 34 35 33 30 28 27
2 2 2 2 2 2 2 2 2 2 2 2 2 2 2 2 2 2 2 2 2 2 2 2 2 2 2 2 2 2 2 2 2 2 2 2 2 2 2 2 2 2 2 2 2 2 2 2 2 2 3 3 3 3 3 3 3 4 5 6 7 8 8 7 7 7 7 8 9 10 11 13 14 16 18 21 24 26 28 30 32 34 34 32 31
2 2 2 2 2 2 2 2 2 2 2 2 2 3 3 2 2 2 2 2 2 2 2 2 2 2 2 2 2 2 2 2 2 2 2 2 2 2 2 2 2 2 2 2 2 2 2 2 2 2 3 3 3 3 3 3 3 3 4 5 6 7 7 7 7 6 6 7 8 8 9 10 12 13 15 17 20 23 26 29 31 33 36 37 36
2 2 2 2 2 2 2 2 2 2 2 3 3 3 3 3 3 2 2 2 2 2 2 2 2 2 2 2 2 2 2 2 2 2 2 2 2 2 2 2 2 2 2 2 2 2 2 2 2 2 2 2 3 3 3 3 3 3 3 4 5 6 6 7 7 7 6 6 7 7 8 9 10 11 12 14 17 20 24 27 31 33 34 36 37
3 3 3 3 3 2 2 2 2 2 2 3 3 3 3 3 3 3 2 3 3 2 2 2 2 2 2 2 2 3 2 2 2 2 2 2 2 2 2 2 2 2 2 2 2 2 2 2 2 2 2 2 3 3 3 3 3 3 3 3 4 4 5 6 6 6 6 6 6 6 7 8 9 10 11 12 15 17 20 24 28 31 33 35 36
3 3 3 3 3 3 3 3 3 3 3 3 3 3 3 3 3 3 3 3 2 3 2 2 3 2 2 3 3 3 3 2 2 2 2 2 2 2 2 2 2 2 2 2 2 2 2 2 2 2 2 2 2 3 3 3 3 3 3 3 3 3 4 5 5 5 6 6 6 6 6 7 9 10 10 11 13 15 17 20 23 27 31 34 36
3 3 3 3 3 3 3 3 3 3 3 3 3 3 3 3 3 3 3 3 3 3 3 3 3 3 3 3 3 3 3 3 3 3 2 2 2 2 2 2 2 2 2 2 2 2 2 2 2 3 2 2 2 2 3 3 3 3 3 3 3 3 3 3 4 4 5 5 5 5 5 6 8 9 10 11 12 13 14 16 19 22 26 30 35
3 3 3 3 3 3 2 3 3 3 3 3 3 3 3 3 3 3 3 3 3 3 3 3 3 3 3 3 3 3 3 3 3 3 2 2 2 2 2 2 2 2 2 2 2 2 2 2 2 2 2 2 2 2 3 3 3 3 3 3 3 3 3 3 3 4 4 4 4 4 5 6 6 8 9 10 11 12 12 13 15 17 21 25 29
3 3 3 3 3 3 2 3 3 2 3 3 3 3 3 3 3 3 3 4 4 3 3 3 3 3 3 3 3 3 3 3 3 3 3 3 3 3 3 2 2 2 2 2 2 2 2 2 2 2 2 3 3 2 3 3 3 3 3 3 3 3 3 3 3 3 3 3 4 4 4 5 5 6 7 8 10 11 11 12 12 14 16 19 22
3 3 3 3 3 3 3 2 3 3 3 3 3 3 3 3 3 3 3 3 4 3 3 3 3 3 3 3 3 3 3 3 3 3 3 3 3 3 3 3 3 3 2 2 2 2 2 2 2 3 3 3 3 3 3 2 3 3 3 3 3 3 3 3 3 3 3 3 3 3 4 4 4 5 5 6 7 8 10 11 11 12 13 14 16
4 3 3 3 3 3 3 3 3 3 2 3 3 3 3 3 3 3 3 3 3 4 3 3 3 3 4 4 3 3 3 3 3 3 3 3 3 3 3 3 3 3 3 3 3 2 3 2 2 3 2 3 3 3 3 3 3 3 3 3 3 3 3 3 3 3 3 3 3 3 3 4 4 4 4 4 5 6 7 9 10 11 12 12 14
4 4 4 4 3 3 3 3 3 3 3 3 3 3 3 3 3 3 3 3 3 3 3 3 3 3 3 3 3 3 3 3 3 3 3 3 3 3 3 3 3 3 3 3 3 3 3 3 3 2 2 3 3 3 3 3 3 3 3 3 3 3 3 3 3 3 3 3 3 3 3 4 4 4 4 4 4 4 5 6 7 9 11 12 13
4 4 4 4 4 4 3 3 3 3 3 3 3 3 3 3 3 3 3 3 3 3 3 3 3 3 3 3 3 3 3 3 3 3 3 3 3 3 3 3 3 3 3 3 3 3 3 3 3 3 3 3 3 3 3 3 3 3 3 3 3 3 3 3 3 3 3 3 3 3 3 4 4 4 4 4 4 4 4 5 5 6 8 9 11
4 4 4 4 4 4 4 4 4 3 3 3 3 3 3 3 3 3 3 3 3 3 3 3 3 3 3 3 3 3 3 3 3 3 3 3 3 3 3 3 3 3 3 3 3 3 3 3 3 3 3 3 3 3 3 3 3 3 3 3 3 3 3 3 3 3 3 3 3 3 3 3 3 4 4 4 4 4 4 4 4 4 5 6 7
4 4 4 4 4 4 4 4 4 4 4 3 3 3 3 3 3 3 3 3 3 3 3 3 3 3 3 4 4 4 4 3 3 3 3 3 3 3 3 3 3 4 4 4 4 3 3 3 3 3 3 3 4 3 3 3 3 3 3 3 3 3 3 3 3 3 3 3 3 3 3 3 3 3 4 4 4 4 4 4 4 4 4 4 5
4 4 4 4 4 4 4 4 4 4 3 3 4 4 4 4 4 4 4 4 4 4 3 3 3 3 3 4 4 4 4 4 4 3 3 3 3 3 3 3 3 4 4 4 4 4 4 4 4 4 4 4 4 4 4 4 4 4 3 3 3 3 2 3 3 3 3 3 3 3 3 3 3 3 4 4 4 4 4 4 5 4 4 4 4
4 4 4 4 4 4 4 4 4 3 3 3 3 3 4 4 4 4 4 4 4 4 4 4 4 4 4 4 4 4 4 4 4 4 3 4 4 4 4 4 4 4 4 4 4 4 4 4 4 4 4 4 4 4 4 4 4 4 4 3 3 3 3 3 3 3 3 3 3 3 3 3 3 3 3 4 4 4 4 4 4 4 4 4 4
4 4 4 4 4 4 4 4 4 4 3 3 4 4 4 4 4 4 4 4 4 4 4 4 4 4 4 4 4 4 4 4 4 4 4 4 4 4 4 4 4 4 4 4 4 4 4 4 4 4 4 4 4 4 4 5 5 4 4 4 3 3 3 3 3 3 3 3 3 3 3 3 3 3 3 4 3 3 4 4 4 4 4 4 4
4 4 4 4 4 4 4 4 4 4 4 3 4 4 4 4 4 4 4 4 4 4 4 4 4 4 4 4 4 4 4 4 4 4 4 4 4 4 4 4 4 4 4 4 5 4 4 4 4 4 4 4 4 4 4 5 5 5 4 4 4 4 4 3 3 3 3 3 3 3 3 3 3 3 3 3 3 3 3 3 3 4 4 4 4
4 4 4 4 4 4 4 4 4 4 4 4 4 4 4 4 4 4 4 4 4 4 4 4 4 4 4 4 4 4 4 4 4 4 4 4 4 4 4 4 4 5 5 5 5 5 5 5 4 4 4 4 4 4 4 4 5 5 5 4 4 4 4 4 4 3 3 3 3 3 3 3 3 3 3 3 3 3 3 3 3 3 3 4 4
4 4 4 4 4 4 4 4 4 4 4 4 4 4 4 4 4 4 4 4 4 4 4 4 4 4 4 4 4 4 4 4 4 4 4 4 4 4 4 4 4 5 5 5 5 5 5 5 5 5 4 4 4 4 4 4 4 4 4 4 4 5 5 4 4 4 3 3 3 3 3 3 3 3 3 3 3 3 3 3 4 3 4 4 4
5 5 4 4 4 4 4 4 4 4 4 4 4 5 5 5 4 4 4 4 4 4 4 4 4 4 4 4 4 4 4 4 4 4 4 4 4 4 4 4 4 4 4 4 5 5 5 5 5 5 5 5 5 5 4 4 4 4 4 4 4 4 5 4 4 4 4 3 3 3 3 3 3 4 4 4 4 4 4 4 4 4 4 4 4
5 5 5 5 5 4 5 5 4 4 4 4 5 5 5 5 5 5 5 5 5 5 5 5 5 5 5 5 5 4 4 4 4 4 4 4 4 4 4 4 4 4 4 4 4 4 4 5 5 5 5 5 5 5 5 4 5 5 4 4 4 4 4 5 5 5 5 4 4 3 3 3 4 4 4 4 4 4 4 4 4 4 4 4 4
6 6 5 5 5 5 5 5 5 5 5 5 5 5 5 5 5 5 5 5 5 5 5 5 5 5 5 5 5 5 5 4 5 4 4 4 4 4 4 4 4 4 4 4 4 4 4 4 4 4 5 5 5 5 5 5 5 5 4 4 4 4 4 5 5 5 5 5 4 4 4 4 4 4 4 4 4 4 4 4 4 4 4 4 4
6 6 6 5 5 5 5 5 5 5 5 5 5 6 6 6 6 5 5 5 5 5 5 5 5 5 5 5 5 5 5 5 5 5 5 4 4 4 4 4 4 4 4 4 4 4 4 4 4 4 4 4 5 5 5 5 5 5 5 4 4 4 4 5 5 5 5 5 5 5 4 4 4 4 4 4 4 4 4 4 4 4 4 4 4
7 7 7 6 5 5 5 5 5 5 5 5 5 6 6 6 6 6 6 6 5 5 5 5 5 5 5 5 5 5 5 5 5 5 5 5 5 4 4 4 4 4 4 4 4 4 4 4 4 4 4 4 4 4 5 5 5 5 5 5 5 4 4 4 5 5 5 5 5 5 5 5 5 4 4 4 4 4 4 3 4 4 4 4 4
7 7 7 7 6 6 6 6 6 6 6 5 6 6 5 6 6 6 6 6 6 6 6 5 6 5 5 5 5 5 5 5 5 5 5 5 5 5 4 5 5 4 4 4 4 4 4 4 4 4 4 4 4 4 4 5 5 5 5 5 5 5 5 5 5 5 5 5 5 5 6 6 5 5 5 4 4 4 4 4 4 4 4 4 4
6 7 7 7 7 7 7 7 7 7 7 7 6 6 6 6 6 6 6 6 6 6 6 6 6 6 6 6 6 5 5 5 5 5 5 5 5 5 4 5 5 5 4 4 4 4 4 4 4 4 4 4 4 4 5 5 5 5 5 5 5 5 5 5 5 5 5 5 5 5 5 5 6 6 6 6 5 5 5 4 4 4 4 4 4
6 7 7 8 8 8 8 8 7 8 8 8 8 8 8 8 7 7 6 6 6 6 7 7 7 7 7 7 6 6 6 6 5 5 5 5 5 5 5 5 5 5 5 5 5 5 4 5 5 4 4 4 4 5 5 5 5 5 5 5 5 5 5 5 5 5 5 5 5 5 5 5 5 5 5 6 6 6 6 5 5 5 5 5 5
7 7 7 8 9 9 9 9 8 8 9 9 9 9 10 10 10 10 9 9 8 7 7 7 7 7 7 7 7 7 6 6 6 6 6 6 6 5 5 5 5 5 5 5 5 5 5 5 5 5 5 5 5 5 5 5 5 5 5 5 5 5 5 5 5 5 5 5 5 5 5 5 6 5 5 6 6 5 6 6 5 5 5 5 5
7 7 7 7 9 9 10 10 10 10 10 10 11 11 12 12 12 13 13 13 13 12 10 8 7 7 7 7 8 8 8 7 7 7 6 7 6 6 6 5 5 5 5 5 5 5 5 5 5 5 5 5 5 6 6 5 6 6 6 6 6 5 5 5 5 5 5 5 6 6 6 6 6 6 6 6 6 6 6 6 6 6 6 6 6
8 8 7 7 8 9 10 11 12 12 12 12 12 13 14 15 15 16 16 17 17 18 17 15 12 9 8 8 7 8 8 9 8 8 8 7 7 7 7 6 6 6 6 5 5 5 5 5 5 5 5 6 6 6 6 6 6 6 6 6 6 6 6 6 6 6 6 6 6 6 6 6 6 6 6 6 7 6 6 6 6 6 6 6 6
8 8 8 8 7 8 9 11 12 13 14 14 14 15 16 18 18 19 18 18 19 20 22 22 20 17 14 12 10 9 8 8 8 9 9 9 8 8 8 7 7 7 6 6 6 6 6 5 5 5 5 6 6 6 6 6 6 6 7 7 7 7 7 7 7 7 6 6 6 6 6 6 6 6 7 7 7 7 7 7 7 7 7 7 7
8 8 8 8 8 8 8 9 11 13 14 15 16 16 17 19 21 23 22 21 21 22 22 24 24 22 20 18 17 15 13 11 9 8 8 8 9 9 9 9 8 8 7 7 7 7 7 6 6 6 6 6 6 6 6 6 6 6 7 7 7 7 7 7 7 7 7 7 7 7 7 7 7 7 7 7 7 8 7 7 8 7 7 7 7
7 8 8 8 8 8 8 8 9 11 13 15 17 17 17 19 21 24 26 26 25 24 24 25 25 24 22 21 21 21 21 19 17 14 12 10 9 9 9 9 10 9 9 9 8 8 7 7 7 7 7 6 6 6 6 6 6 6 6 6 7 7 7 7 7 7 7 8 8 8 8 8 8 8 8 8 8 9 8 8 9 9 9 9 9
7 7 8 8 8 8 8 8 9 9 10 13 16 18 19 19 20 23 27 29 29 28 27 26 26 24 22 22 22 22 23 23 22 21 19 16 14 13 11 10 10 9 10 10 10 10 9 9 8 8 8 7 7 7 7 7 7 6 7 6 6 6 7 7 7 7 7 7 8 8 8 9 9 9 9 9 9 9 10 10 10 10 10 10 10
7 7 7 8 8 8 8 8 8 9 9 10 13 16 19 21 21 23 25 29 31 31 30 29 28 26 25 24 24 24 24 24 23 23 22 21 21 20 18 16 14 12 11 10 10 10 10 11 11 11 10 9 9 8 8 8 8 7 7 7 7 7 7 7 7 7 7 7 7 7 7 8 8 9 9 9 10 10 10 11 11 11 11 11 11
7 7 7 7 8 8 9 9 8 9 9 9 11 13 17 21 24 25 26 28 31 33 32 31 31 29 28 28 28 28 28 27 26 25 24 24 23 23 23 23 23 21 19 17 15 13 12 11 11 12 12 12 12 12 11 11 10 9 9 9 8 8 8 7 7 7 7 7 7 7 7 7 7 8 8 8 9 9 9 10 10 11 11 11 11
7 7 7 7 7 8 8 9 9 9 9 9 10 11 14 18 23 26 28 29 31 34 34 34 34 33 31 30 30 31 31 31 30 29 28 27 26 25 25 26 26 26 26 26 26 25 23 20 18 16 15 14 13 13 13 13 13 13 13 12 12 11 11 10 10 9 9 9 8 8 8 7 7 7 7 7 8 8 8 8 9 9 9 10 10
7 7 7 7 7 7 8 8 9 9 9 9 9 10 11 14 18 23 27 30 32 35 37 38 38 37 35 33 32 32 32 33 34 33 32 30 29 28 27 27 27 27 27 27 29 29 30 30 29 28 26 24 22 20 18 17 16 16 15 15 15 15 14 14 14 13 13 12 11 11 11 10 10 9 9 9 9 9 8 8 8 8 8 8 8
7 7 7 7 7 7 7 8 8 9 9 9 9 9 10 12 14 18 23 27 30 34 37 40 42 42 41 39 36 34 33 33 34 35 35 34 33 31 30 28 28 28 28 28 28 28 29 30 31 32 33 33 32 31 30 28 26 24 23 22 21 21 20 19 19 18 18 18 17 17 16 16 15 15 15 14 14 14 13 13 13 13 12 12 12
8 7 7 7 7 7 7 7 7 8 9 9 9 9 9 11 12 14 18 22 26 30 34 39 43 46 47 46 44 40 36 35 34 35 37 37 36 35 34 32 31 31 30 30 30 30 30 31 31 31 32 33 33 34 35 35 34 34 33 31 30 29 29 28 27 26 26 25 25 24 24 23 23 23 23 23 23 23 22 22 22 21 21 21 20
9 8 7 7 7 7 7 7 7 8 8 9 10 10 9 10 11 12 14 17 21 25 29 34 39 45 49 50 50 48 44 40 38 38 39 39 39 39 39 38 37 36 35 35 34 34 34 34 34 34 34 34 34 34 35 35 36 36 36 36 36 36 35 35 35 34 33 33 32 32 32 32 31 31 31 31 31 31 31 31 31 31 31 32 32
9 9 8 8 7 7 7 7 7 7 8 8 9 10 10 10 10 10 12 14 16 19 24 29 34 40 46 50 52 53 50 47 44 42 41 41 41 42 42 43 43 42 42 41 40 40 40 39 39 39 38 38 38 37 37 37 37 37 37 37 38 38 39 39 39 39 39 39 38 37 37 37 36 36 36 36 36 37 37 38 38 39 39 40 41
9 9 9 8 7 7 8 7 7 7 7 8 9 10 11 11 10 10 10 12 13 14 18 22 27 34 41 47 51 54 54 53 52 49 46 45 44 44 45 46 47 47 47 46 45 44 44 44 44 44 43 43 43 44 43 42 41 41 40 40 39 40 40 40 40 40 40 40 39 39 39 39 39 39 40 40 39 40 39 39 39 40 39 39 39
9 9 9 9 8 8 8 8 7 8 7 7 8 9 10 11 12 11 10 11 11 12 14 16 20 25 32 39 46 52 55 57 58 57 55 53 51 50 49 49 49 49 50 49 49 48 48 47 47 46 46 46 45 45 45 45 44 44 43 43 42 42 42 41 41 41 41 40 40 40 40 41 40 40 40 39 39 38 38 37 37 38 37 37 37
Wind_Speed
45 45 45 46 48 49 51 52 52 53 55 56 57 59 60 62 63 63 65 66 67 67 67 68 68 69 69 70 72 72 72 72 73 74 76 79 83 86 88 90 92 95 98 100 103 105 107 109 112 114 116 117 118 121 125 129 131 132 131 131 131 132 132 132 131 131 132 133 133 133 134 135 136 139 142 144 145 144 143 143 143 143 142 142 141
43 43 44 44 44 46 47 48 49 50 51 52 54 55 56 57 59 60 61 63 64 64 64 64 64 65 67 68 69 69 69 70 70 70 71 73 77 81 84 87 90 92 94 97 99 102 104 105 108 110 113 115 116 118 122 126 130 132 132 131 130 130 130 130 130 130 131 133 134 134 134 135 136 137 139 143 145 145 144 143 143 143 142 142 142
41 42 42 42 42 42 43 43 44 46 47 48 49 50 52 54 56 57 58 59 59 60 60 60 60 61 63 64 64 65 67 67 68 69 69 70 72 76 79 83 87 89 91 93 95 98 100 102 105 107 109 111 113 115 118 122 127 130 132 132 131 129 129 130 129 129 130 132 133 134 134 135 135 136 137 140 144 146 146 144 143 143 143 143 143
38 38 38 39 39 39 39 40 41 42 43 44 46 47 50 53 54 54 54 56 57 57 56 56 57 58 57 57 59 62 64 65 66 66 67 68 70 72 75 78 82 85 88 90 91 93 95 98 101 104 106 107 108 112 115 119 123 128 131 132 131 130 129 129 129 129 129 131 132 133 133 134 134 135 137 139 142 144 146 145 143 143 143 143 143
35 35 36 36 36 36 37 38 39 41 42 42 44 46 48 50 51 51 52 54 55 54 52 53 55 53 51 54 58 61 63 64 64 64 65 66 68 69 71 73 77 81 85 87 88 88 90 92 96 100 102 103 104 107 111 115 119 124 128 130 131 131 130 129 128 128 129 129 130 132 133 133 134 135 136 138 140 142 143 144 144 144 143 143 144
33 33 33 34 34 34 35 36 37 39 40 41 42 44 47 48 48 49 51 52 53 52 50 51 51 50 50 54 57 59 61 61 62 62 63 64 65 67 68 70 73 77 81 83 84 85 86 87 90 94 96 99 102 104 106 110 115 120 124 128 130 131 131 130 128 127 128 129 129 130 131 133 133 133 134 136 138 140 141 143 144 144 144 143 144
30 30 30 31 31 32 32 34 35 36 38 39 40 42 44 46 47 48 49 50 51 51 50 49 49 49 50 51 52 55 57 58 59 59 61 62 63 65 66 67 70 72 75 79 81 82 83 84 86 88 91 95 98 101 103 105 109 114 120 124 127 129 130 130 128 126 126 127 128 129 130 131 132 132 133 135 137 139 140 141 142 143 143 144 144
28 27 28 28 29 29 30 31 33 34 35 37 38 39 41 43 45 46 46 48 49 49 48 47 46 46 45 44 46 51 53 55 55 56 57 59 61 63 64 65 67 69 71 74 77 79 81 81 82 84 87 90 94 97 99 101 104 108 114 119 123 126 128 128 128 126 125 125 126 127 128 129 131 132 132 134 135 136 138 139 140 141 143 145 146
27 27 27 27 27 28 28 29 30 30 31 33 35 37 39 41 44 46 45 45 46 46 45 44 43 42 40 41 44 47 49 51 51 53 54 56 58 60 62 63 65 67 69 71 73 76 78 79 80 80 82 85 89 92 95 98 100 103 108 113 118 122 125 126 127 126 124 123 123 124 125 127 129 130 130 131 132 133 135 138 140 142 143 145 146
27 26 26 26 26 27 27 27 27 27 27 29 31 34 37 39 42 44 43 42 43 43 43 42 41 40 39 39 41 44 46 47 48 50 52 54 56 58 60 62 63 65 66 68 70 72 74 75 77 78 79 81 84 87 91 94 97 100 103 108 112 116 120 123 124 125 124 123 122 121 122 124 126 127 128 129 130 132 134 136 139 141 143 144 145
24 23 23 23 23 24 24 25 25 25 25 25 28 31 34 37 39 40 39 40 40 40 39 39 38 38 37 38 40 42 43 44 45 47 50 52 54 56 58 60 61 63 64 66 67 69 71 72 73 74 76 77 80 82 86 89 93 96 100 103 106 110 114 118 121 122 123 123 121 119 119 120 122 125 126 128 130 132 134 135 137 139 141 143 145
22 21 20 20 20 20 20 21 22 22 22 22 24 27 30 33 34 35 35 35 36 35 35 36 36 36 36 36 39 41 41 41 43 44 47 49 51 54 56 57 59 60 62 64 65 67 68 69 70 72 73 74 76 78 81 84 88 91 95 98 100 104 107 112 115 118 120 121 120 119 118 118 119 122 124 126 129 131 132 134 135 137 139 141 144
22 21 20 19 19 18 18 19 19 19 19 19 21 24 26 28 29 30 29 30 31 32 33 34 34 34 34 35 37 40 41 41 41 42 44 46 48 51 53 54 56 58 59 61 63 64 65 67 68 69 71 72 73 75 77 80 83 86 90 92 95 98 101 105 109 112 115 116 117 117 116 117 118 119 122 124 127 129 131 132 134 135 137 139 142
24 23 22 21 20 19 19 19 18 18 17 17 18 21 23 25 26 26 26 27 28 29 30 32 32 32 33 34 36 38 40 40 40 40 42 43 44 47 49 51 52 54 56 57 59 61 62 64 65 66 68 69 70 72 73 75 78 81 84 86 89 93 96 99 102 105 108 111 113 114 115 116 116 118 120 122 124 126 127 129 131 133 135 137 139
27 25 24 23 21 21 20 19 19 18 17 16 16 17 19 21 23 23 24 25 26 27 27 28 29 30 30 32 34 36 38 39 38 39 40 41 42 44 45 47 49 51 53 54 56 58 59 61 62 63 65 66 67 68 70 71 73 76 79 81 84 88 90 93 95 98 101 103 106 109 112 113 114 115 117 119 120 122 124 126 128 130 131 133 135
30 28 27 25 23 21 20 20 19 18 17 16 15 15 16 18 19 21 22 23 23 24 25 25 26 27 28 29 31 34 36 36 37 37 38 39 40 41 43 45 46 48 50 51 53 54 56 57 58 60 61 62 63 65 66 67 69 71 74 77 80 83 86 88 90 92 94 97 99 102 106 109 111 113 114 115 116 117 120 122 124 126 127 128 131
32 30 28 25 23 21 20 19 18 17 17 16 15 15 15 16 17 18 19 20 21 22 22 23 24 25 26 27 29 31 33 34 34 35 36 37 38 39 41 43 44 45 47 48 49 51 52 53 55 56 57 58 59 61 62 64 66 68 70 73 76 79 81 83 85 87 88 90 93 96 99 103 106 109 111 112 113 114 116 118 119 121 123 125 126
32 30 28 26 24 22 20 18 17 16 16 16 15 15 15 15 15 16 17 18 19 19 20 21 22 23 24 25 26 28 30 31 32 33 33 34 35 37 38 39 41 42 43 44 46 47 49 50 52 53 54 55 57 58 59 61 62 65 67 69 71 74 77 78 80 81 83 85 87 90 93 97 100 103 106 108 110 111 113 114 116 118 121 122 123
32 30 28 27 25 23 21 19 18 16 15 15 14 14 14 14 15 15 15 16 16 17 17 18 18 19 20 21 23 25 27 28 30 31 32 32 33 34 35 36 37 39 40 41 43 44 46 47 48 50 51 52 53 54 56 57 59 61 63 65 68 70 72 72 74 76 78 81 83 85 88 91 94 97 100 103 105 107 109 111 113 115 117 119 120
33 30 28 27 26 25 23 21 19 17 16 15 15 14 14 14 14 14 14 14 14 15 15 15 16 16 17 18 19 21 23 25 27 28 30 31 32 33 33 34 35 36 37 38 40 41 43 44 46 47 48 49 49 50 52 53 55 57 59 62 65 66 65 66 68 71 73 75 78 80 83 85 88 91 94 97 100 103 106 108 109 111 113 114 116
33 31 29 28 27 26 24 23 21 19 18 17 16 15 14 14 13 13 13 13 13 13 13 13 14 14 15 16 17 18 20 21 23 25 27 28 30 31 32 33 33 34 35 36 37 38 40 41 43 44 45 46 47 48 49 51 52 54 56 59 61 60 60 62 65 67 69 71 74 76 79 81 83 86 89 92 95 99 102 104 106 108 109 109 110
35 32 31 30 28 26 25 24 22 21 19 18 17 16 15 15 14 13 13 13 13 12 12 12 12 13 13 14 15 16 18 19 21 22 24 26 27 29 30 31 32 32 33 33 34 35 36 38 40 41 43 44 45 46 48 49 50 52 54 56 56 55 57 60 63 65 67 69 70 73 75 78 80 83 85 88 90 93 96 99 101 103 104 105 105
35 33 31 31 29 27 26 24 23 21 20 19 18 17 16 15 15 14 13 13 12 12 12 12 12 12 12 12 13 14 16 18 19 21 22 24 25 27 28 29 30 31 31 31 32 32 33 35 37 39 40 42 44 45 46 47 49 51 53 52 52 52 54 56 59 63 65 67 68 70 72 74 77 79 81 83 86 88 91 93 95 97 99 100 101
35 33 32 31 30 28 27 26 24 23 22 20 19 17 16 15 15 14 13 13 12 12 11 11 11 11 11 11 11 12 13 15 17 18 20 22 23 25 26 27 28 30 30 31 31 32 32 33 34 36 38 40 42 44 45 46 48 50 50 49 49 50 51 53 56 59 62 64 66 68 69 71 73 75 77 79 81 83 85 87 89 91 92 94 96
35 33 31 30 29 28 26 26 25 24 22 21 19 18 17 16 15 15 14 13 13 12 12 11 11 10 10 10 10 10 11 12 13 15 16 18 20 22 23 25 26 27 29 30 30 31 32 32 32 34 35 37 38 40 42 43 45 47 48 48 48 49 50 52 53 55 58 61 63 65 66 67 69 70 72 74 76 77 79 81 83 85 86 88 90
37 34 32 30 28 26 25 25 24 23 22 20 19 19 18 17 16 15 15 14 13 13 12 12 11 11 11 10 10 10 10 10 11 12 13 15 16 18 20 21 23 24 26 27 28 30 31 31 32 32 33 33 34 35 38 41 43 46 46 46 46 47 48 50 51 53 55 57 58 60 62 64 65 66 67 69 70 72 73 75 77 79 80 82 84
40 37 35 32 30 28 27 26 25 24 22 21 20 19 18 18 17 16 15 15 14 13 13 12 12 12 12 12 12 11 10 10 10 11 11 12 13 14 16 17 19 20 22 23 25 26 28 29 30 31 31 31 32 33 35 38 40 42 42 43 44 44 46 47 48 50 52 53 54 56 58 60 61 62 64 65 67 69 70 71 72 74 75 76 78
42 39 37 34 32 29 28 27 26 25 24 23 22 21 20 19 18 17 16 16 15 14 13 13 12 12 12 12 12 12 12 11 11 11 11 11 11 12 13 15 16 17 18 19 21 22 24 25 26 27 28 29 30 32 33 34 35 37 38 39 40 41 42 44 46 47 49 51 52 53 54 56 58 60 62 64 65 67 67 68 69 71 72 73 74
42 40 37 34 32 30 29 27 26 25 24 24 24 23 22 22 21 19 18 17 16 14 13 12 12 12 11 11 11 11 10 10 10 10 11 11 11 12 13 13 14 15 16 17 18 19 20 21 22 23 24 25 27 29 30 31 33 34 35 35 36 37 38 39 42 44 46 48 49 50 51 53 55 58 60 61 63 63 64 65 67 68 69 70 71
44 41 38 36 33 32 30 28 27 26 25 24 23 23 22 22 21 20 19 17 16 14 13 12 11 10 10 10 9 9 8 8 8 8 9 10 10 11 12 13 13 14 15 15 16 17 18 19 19 20 20 22 23 25 27 29 30 32 33 33 33 33 34 36 38 40 42 44 45 47 49 51 53 55 57 59 60 60 61 63 64 65 66 67 67
45 43 41 38 36 34 32 30 28 27 25 24 23 22 22 21 20 20 19 18 17 15 14 12 11 10 9 9 8 8 7 6 6 6 6 7 8 9 10 11 12 13 13 14 14 15 16 17 17 18 18 19 20 22 23 25 27 29 30 31 31 31 32 33 34 36 38 40 41 43 45 47 49 51 53 54 55 56 57 59 60 62 63 64 64
47 44 42 40 38 36 34 32 30 28 26 25 24 23 22 21 20 19 19 18 18 17 16 14 12 11 10 9 9 8 7 6 6 5 5 5 5 6 7 8 10 11 11 12 12 12 13 14 15 16 17 17 18 19 20 22 24 26 28 29 30 31 31 32 33 33 35 36 37 39 41 43 45 47 48 49 50 51 53 55 56 58 59 60 61
51 47 44 42 40 38 36 34 32 30 29 27 26 25 24 23 22 21 20 20 19 18 18 17 15 13 12 11 11 10 8 7 7 7 6 5 5 5 5 5 6 7 8 9 10 10 10 11 12 13 15 16 16 17 18 19 20 22 24 26 28 29 30 31 31 32 33 34 35 36 38 39 41 43 44 45 47 48 49 50 52 53 54 56 57
55 51 47 44 42 40 38 36 33 31 30 29 28 27 26 25 24 23 22 22 21 20 19 19 18 16 15 14 13 12 11 10 9 8 8 7 7 6 5 5 4 5 5 6 7 7 8 9 10 11 12 13 15 15 16 17 18 19 21 22 24 26 27 28 29 30 30 31 32 33 34 35 37 39 41 42 44 46 47 48 50 51 52 53 54
57 54 50 47 43 41 39 37 35 33 32 30 29 28 27 26 25 24 23 23 23 22 21 20 19 19 17 16 15 14 13 12 11 10 9 9 8 7 6 5 5 4 4 5 5 5 6 6 7 8 9 11 12 13 14 15 16 17 19 20 21 22 24 25 26 27 28 28 29 30 31 31 33 34 36 38 40 42 44 46 47 49 50 51 52
58 55 53 49 46 42 40 38 37 35 33 31 30 29 28 27 26 25 24 24 23 23 23 22 21 20 19 18 16 15 14 13 12 11 10 9 9 8 7 6 5 5 4 4 4 5 5 5 5 6 7 8 10 11 12 13 14 15 16 17 19 20 21 22 23 24 25 26 27 28 28 29 30 31 32 33 35 37 39 41 43 44 46 47 49
59 57 54 51 48 45 42 39 38 36 35 33 31 29 28 27 26 25 25 24 23 23 23 23 22 21 19 18 17 16 15 14 13 12 11 10 9 8 8 7 6 6 5 4 4 4 4 4 4 5 6 6 7 8 10 11 12 13 14 15 16 17 18 19 20 21 23 24 25 26 27 28 28 29 30 31 32 33 35 37 38 40 41 43 45
59 57 55 53 50 47 44 41 38 37 35 34 32 31 29 28 27 26 25 24 24 23 23 23 22 21 20 19 18 17 16 15 14 12 11 10 9 9 8 8 7 6 6 5 4 4 4 4 4 4 5 5 6 7 8 9 10 11 12 13 14 15 16 17 17 18 19 21 22 23 24 25 26 27 29 30 31 32 33 34 35 37 38 40 42
59 58 56 54 51 49 46 43 40 37 35 34 33 32 30 29 28 27 26 25 24 23 23 23 22 21 20 19 18 18 17 16 15 13 12 11 10 9 8 8 7 7 6 5 4 4 4 3 3 4 4 5 5 6 7 8 9 10 11 12 13 14 14 15 16 17 18 18 19 20 21 23 24 25 26 28 29 30 31 32 33 34 35 37 38
60 58 56 55 52 50 48 45 42 39 36 34 33 32 31 30 28 27 26 26 25 24 23 22 22 21 20 19 18 18 17 16 16 15 13 12 11 10 9 8 8 7 6 5 5 4 3 3 3 3 3 4 4 5 6 7 8 9 10 11 12 12 13 14 15 16 17 17 18 19 20 21 22 23 24 25 27 28 29 30 31 32 33 34 35
61 59 57 55 53 51 49 46 44 41 38 35 33 32 31 30 29 27 26 26 25 24 23 22 22 21 20 19 18 18 17 17 16 15 14 13 12 11 10 9 8 8 7 6 5 5 4 3 3 3 3 3 3 4 5 6 7 7 8 9 10 11 12 13 14 15 16 17 18 19 19 20 21 22 23 24 25 27 28 29 30 31 32 33 34
62 60 57 55 53 52 50 47 45 43 40 37 34 32 31 30 29 27 26 25 24 24 23 22 22 22 21 20 19 18 18 17 16 15 15 14 13 12 12 11 10 9 8 7 6 6 5 4 4 4 4 3 3 4 4 4 5 6 7 8 9 10 11 12 13 14 15 16 17 18 19 20 21 22 23 24 25 26 27 28 29 30 32 33 33
63 60 58 56 54 52 50 48 46 44 42 39 36 34 31 30 28 27 26 24 23 23 23 22 22 22 21 21 20 19 18 17 17 16 16 15 14 13 12 12 11 11 10 9 8 7 6 6 5 5 5 5 5 5 5 5 5 6 6 7 8 9 10 11 12 13 14 15 16 17 19 20 21 22 23 24 24 25 26 27 28 30 30 31 32
65 62 59 57 55 53 50 49 47 45 43 40 38 35 33 31 29 28 27 25 24 22 22 22 22 22 21 21 20 19 19 18 17 17 16 15 14 13 12 12 11 11 10 10 9 9 8 7 7 6 6 6 7 7 7 7 7 7 7 7 8 8 9 10 10 11 12 13 15 16 17 18 19 20 21 22 24 25 26 27 28 29 30 31 32
67 64 61 58 56 54 51 49 47 46 44 42 39 37 34 32 30 28 27 26 25 23 22 21 21 21 21 21 20 19 18 17 17 17 16 15 14 13 12 12 11 10 10 9 9 9 8 8 8 8 7 8 8 9 9 9 9 9 9 9 9 10 10 10 11 11 12 13 14 15 15 16 17 18 19 20 21 22 23 24 26 27 28 30 31
68 65 63 60 58 55 53 50 48 46 44 42 40 38 36 33 31 30 28 27 26 25 23 22 21 20 20 20 20 19 18 17 16 16 16 15 15 14 13 12 11 11 10 10 9 9 9 9 9 9 8 8 9 9 9 10 10 11 11 11 12 12 12 12 13 13 13 14 14 15 15 16 16 17 18 19 19 20 21 22 23 25 26 27 28
70 67 64 62 59 57 55 52 49 47 44 43 41 39 37 34 33 31 30 29 27 26 25 23 22 20 20 19 19 19 18 17 16 16 15 15 15 14 13 13 12 12 11 11 10 10 10 9 9 10 10 10 10 10 10 10 10 11 11 12 12 13 13 13 14 14 15 15 15 16 16 17 17 18 18 19 20 21 21 22 23 24 25 26 27
71 69 66 64 61 59 56 54 51 48 45 43 41 40 37 35 33 32 31 31 29 28 26 25 23 22 20 19 19 19 18 18 17 16 15 15 15 14 13 13 12 12 11 11 11 10 10 10 10 10 10 10 10 11 11 11 11 12 12 12 12 13 13 13 14 14 15 15 16 16 17 17 18 18 19 20 20 21 22 22 23 24 25 26 26
73 71 68 66 63 60 58 56 53 50 47 44 42 40 38 36 34 33 32 31 31 30 28 27 25 24 22 21 19 19 18 18 17 16 15 15 14 14 13 13 12 12 11 11 10 10 9 9 9 9 9 10 10 10 11 11 12 12 12 13 13 13 13 13 14 14 15 15 16 16 17 17 18 18 19 20 20 21 22 22 23 24 24 25 26
75 72 70 67 65 62 60 57 55 53 49 46 43 40 39 38 36 34 32 31 31 31 30 29 27 26 25 23 21 20 19 18 18 17 16 15 15 14 14 13 13 12 11 10 9 9 8 8 8 8 8 8 8 8 9 10 11 11 12 12 12 13 13 13 14 14 14 15 15 16 16 17 17 18 19 19 20 21 22 22 23 24 25 25 27
75 72 70 68 66 64 61 59 57 54 51 48 45 42 39 38 38 37 35 33 31 30 30 29 29 28 27 26 24 23 21 20 19 18 17 16 15 15 14 14 13 13 12 11 10 9 9 8 8 8 7 7 7 7 8 9 9 10 10 11 11 12 12 13 13 13 14 14 14 15 15 16 16 17 18 19 19 20 21 21 22 23 23 24 25
Wind_Direction
280 278 275 272 271 269 268 267 265 263 262 261 260 260 259 258 258 258 257 257 257 257 256 256 256 255 255 254 253 252 251 249 247 245 243 242 241 241 241 241 240 239 239 239 239 240 239 239 238 237 236 235 234 233 234 237 240 242 241 240 240 239 239 238 238 238 238 238 238 238 238 239 239 240 242 243 244 244 244 244 245 245 246 246 247
283 281 278 275 272 270 269 268 266 265 264 262 261 261 260 259 259 258 257 256 256 255 255 254 254 253 253 252 252 252 251 250 249 247 245 242 240 240 240 240 240 240 239 238 238 238 239 239 239 238 236 235 234 233 232 233 237 240 241 241 240 240 239 239 238 237 238 238 238 238 238 238 239 239 240 242 243 244 244 244 244 245 245 246 246
283 281 279 276 274 271 269 267 266 265 264 263 262 261 261 259 258 257 258 257 257 256 256 255 253 252 251 252 252 252 251 250 249 248 246 244 242 240 238 238 239 240 240 239 238 238 238 238 238 238 237 236 234 233 232 232 233 236 239 241 241 240 239 239 238 238 237 238 238 238 238 238 238 239 239 240 242 243 244 244 244 244 245 245 246
283 280 278 276 274 272 270 268 266 264 262 261 260 259 258 258 258 258 258 258 258 257 256 255 254 253 253 253 252 251 250 249 248 247 246 244 243 241 239 238 238 239 240 240 239 238 237 238 238 239 238 237 235 233 232 232 232 233 236 239 241 241 240 239 239 238 238 237 238 238 238 238 238 238 239 239 240 242 243 244 244 244 244 245 246
284 282 280 278 276 274 271 268 266 264 262 260 259 257 257 257 258 259 259 258 259 258 257 256 256 255 254 251 250 249 248 248 247 246 245 244 243 242 240 239 238 238 239 239 240 239 237 237 238 239 239 239 237 235 233 232 231 232 234 237 239 241 241 240 239 238 238 238 238 238 238 238 238 238 238 239 240 241 242 243 244 244 245 245 245
288 286 284 281 279 276 272 269 266 265 263 261 259 258 258 258 259 259 260 260 261 261 259 257 256 255 251 248 248 249 249 248 247 246 245 244 243 242 241 239 238 238 238 239 240 239 238 237 236 237 238 239 238 237 235 233 232 232 232 234 237 239 241 241 240 239 238 238 238 238 238 238 238 238 238 238 239 240 241 242 243 244 245 245 245
292 290 287 284 281 277 274 271 269 267 265 263 261 259 259 260 259 259 259 260 261 261 260 258 256 253 251 249 249 249 249 249 248 247 246 245 244 242 241 240 238 238 238 238 239 239 239 238 236 236 236 237 237 238 237 235 233 232 232 233 235 238 240 241 241 240 239 238 239 238 238 238 238 238 238 238 238 239 240 241 242 243 244 245 245
298 295 291 287 284 280 276 273 270 268 266 264 262 260 259 259 259 259 258 258 259 260 261 261 260 258 256 254 251 249 249 249 248 247 246 245 245 243 242 240 239 238 237 237 238 238 238 238 237 236 235 235 236 237 237 237 235 234 233 233 234 236 238 240 242 242 241 240 239 239 239 238 238 238 238 238 238 239 240 241 242 242 243 244 245
306 302 298 293 289 285 281 276 273 268 265 262 260 258 256 256 257 258 259 259 261 262 263 263 262 262 260 256 252 250 250 249 248 247 245 244 243 243 242 240 239 238 237 237 237 237 238 238 237 236 235 235 235 235 236 236 236 235 234 234 234 235 237 239 241 242 242 241 240 239 239 239 239 239 238 239 239 239 239 240 241 241 242 242 243
309 305 301 297 293 290 286 283 278 273 267 261 257 255 255 254 255 257 259 259 260 261 262 262 262 262 260 257 255 253 251 249 248 246 245 244 243 242 241 240 239 238 237 237 237 237 238 238 237 237 236 235 235 235 235 236 236 236 235 235 234 234 236 238 240 241 242 243 242 241 240 239 239 240 239 239 239 239 239 239 239 240 242 242 243
312 308 303 299 296 293 290 287 284 280 273 265 258 255 256 256 256 258 259 259 260 261 263 264 264 263 261 259 257 255 253 251 248 247 246 245 243 242 241 240 239 238 238 237 237 237 237 237 238 237 237 236 235 235 235 235 236 236 236 236 235 235 235 236 238 240 241 242 243 243 241 240 240 240 240 239 239 239 239 239 239 239 240 242 242
320 316 311 306 302 299 295 292 288 284 279 272 264 259 257 258 259 260 260 260 261 262 263 262 261 261 260 258 257 256 254 252 249 247 246 244 244 243 241 240 239 239 238 238 237 237 237 237 237 237 237 237 236 235 235 235 236 236 237 237 237 236 236 236 237 238 240 241 242 242 242 241 240 240 240 239 239 239 239 239 238 239 239 240 241
332 329 326 321 316 312 307 301 295 290 284 278 271 265 261 259 259 260 259 258 258 258 258 258 258 257 256 255 255 255 254 252 249 248 246 245 244 243 243 242 241 240 239 238 238 238 237 237 237 237 237 236 236 236 235 235 236 236 237 238 238 238 237 237 238 238 239 240 241 242 242 242 241 240 240 239 239 239 239 239 239 238 239 239 240
341 339 337 333 329 325 320 313 306 299 292 285 279 273 268 264 261 258 256 254 254 254 254 255 255 255 254 253 253 254 254 253 250 248 246 245 244 244 243 243 242 241 240 239 239 238 238 238 237 237 237 237 236 236 235 235 235 236 237 238 238 238 238 238 238 239 239 240 240 241 241 242 241 241 240 240 239 239 239 239 239 239 239 239 239
348 346 344 340 336 332 327 321 314 307 299 292 285 279 274 269 265 260 257 255 254 254 254 254 254 253 252 251 251 252 253 253 252 250 247 245 244 243 243 242 242 241 240 240 239 239 238 238 238 238 237 237 237 237 236 236 236 236 237 237 238 238 239 239 239 239 240 240 240 241 241 242 242 242 241 241 240 240 240 240 240 240 240 240 240
352 349 347 343 340 335 330 324 319 314 308 300 293 286 280 275 270 266 261 258 256 254 253 252 252 251 250 249 249 250 252 252 251 250 248 246 245 243 242 241 241 240 239 239 239 239 239 239 239 238 238 238 238 238 237 237 237 236 236 237 237 238 239 239 239 239 239 240 240 240 241 241 242 242 243 243 242 241 241 240 241 241 241 241 241
353 351 348 346 343 339 335 329 324 319 314 308 301 293 286 279 275 270 266 263 260 257 255 253 251 250 249 248 249 249 251 252 251 250 249 247 246 245 244 243 242 241 240 239 239 239 239 239 239 239 238 238 238 237 237 237 236 237 237 236 237 237 238 238 239 239 239 240 240 240 240 241 242 242 243 243 243 243 242 242 241 241 241 241 241
355 353 350 349 347 345 342 337 331 325 318 312 306 299 292 285 279 274 270 267 264 262 259 257 255 254 252 250 250 250 250 251 251 251 250 249 247 246 246 245 245 244 242 241 240 239 238 238 239 238 238 238 237 237 237 236 236 236 236 237 237 237 237 238 238 239 239 240 240 239 240 240 241 242 242 243 243 244 243 243 242 242 242 241 241
358 356 354 352 351 350 348 344 340 333 325 318 311 305 299 293 288 284 280 277 274 271 268 265 262 260 258 256 254 253 252 251 251 250 250 250 249 248 247 247 246 245 244 243 241 240 239 238 238 238 238 237 237 238 238 237 237 237 237 237 237 237 237 237 238 238 238 239 240 240 240 240 240 241 242 243 243 244 244 244 243 243 242 242 242
1 360 358 357 355 354 352 350 346 341 335 329 323 317 312 306 301 296 292 287 283 279 275 271 267 264 261 259 257 255 254 253 252 252 251 251 252 251 250 249 248 247 246 245 243 242 240 239 238 238 238 237 237 237 238 238 238 238 238 238 238 238 238 238 238 238 238 239 239 240 240 240 241 241 242 242 243 244 244 244 244 244 244 243 243
2 2 1 360 358 356 354 352 350 347 343 339 335 331 326 321 316 311 305 299 294 288 283 279 273 269 265 261 259 257 255 255 254 253 253 253 253 253 252 251 250 249 247 246 245 243 241 240 239 238 237 237 236 236 236 237 238 238 238 238 238 238 238 238 239 239 238 238 238 239 239 240 240 241 241 241 242 242 243 244 244 245 245 245 244
2 1 1 0 360 359 357 356 354 353 350 347 343 340 337 333 329 325 320 315 309 305 300 295 289 282 275 269 264 260 257 255 254 254 254 254 254 254 254 254 253 252 251 249 247 245 243 241 240 239 238 237 236 236 236 236 237 237 238 238 238 238 237 238 238 238 238 238 238 238 238 238 238 239 239 240 240 241 242 243 243 244 245 246 245
2 1 1 2 2 2 1 359 357 356 355 353 350 346 343 341 338 334 330 325 321 316 312 307 303 297 289 281 273 267 261 257 255 254 253 254 254 254 255 255 254 254 253 252 250 247 244 242 239 238 237 236 236 236 236 236 236 237 238 238 238 238 237 237 237 238 238 237 237 237 237 237 237 238 238 238 239 240 240 241 242 243 244 245 245
3 2 3 4 4 4 2 1 359 358 357 356 354 352 349 347 344 341 338 334 330 325 321 316 311 306 300 293 285 277 270 263 258 255 253 253 253 254 254 254 254 254 253 252 251 250 247 245 242 239 237 235 235 235 235 235 236 237 238 237 236 237 237 236 236 237 237 237 237 236 236 236 237 237 238 238 239 239 240 241 242 242 243 243 244
5 5 5 6 6 5 4 2 0 359 358 357 357 356 354 351 349 347 344 342 339 335 332 327 322 317 311 304 296 287 280 273 267 261 256 252 250 250 250 251 251 252 252 252 251 250 249 248 246 243 240 238 236 235 234 234 235 236 237 236 234 234 235 234 234 236 237 236 236 236 236 236 237 237 238 238 239 240 240 241 242 242 242 242 243
8 7 6 7 8 8 7 6 4 3 2 2 1 0 358 355 352 350 348 347 344 342 338 335 332 328 323 316 309 300 291 283 277 270 264 258 253 250 249 249 249 249 249 249 249 250 250 249 248 248 246 243 240 237 235 234 234 235 235 235 233 232 233 233 233 234 236 236 236 235 236 236 236 237 238 238 239 240 241 241 242 243 243 243 243
10 9 7 7 8 9 10 9 8 8 7 8 7 6 4 1 358 355 352 350 348 345 342 340 337 333 329 324 319 313 306 298 290 284 277 271 265 260 256 253 251 249 248 247 246 246 247 247 248 249 248 247 244 241 238 236 236 236 235 235 234 232 232 232 232 232 234 236 236 235 234 234 234 235 235 236 236 237 238 239 240 241 242 242 243
11 10 8 7 7 8 9 11 11 11 11 11 11 9 7 5 2 0 359 357 354 351 346 343 340 337 332 327 322 317 313 309 304 298 291 283 276 269 264 260 256 253 251 249 248 247 246 245 244 245 245 246 245 244 242 241 240 238 236 235 234 233 231 231 231 231 231 233 234 235 234 234 233 233 233 234 234 234 235 236 236 237 238 239 240
13 11 10 8 8 7 8 10 13 14 15 15 14 12 9 6 4 3 2 2 360 357 354 350 348 345 340 335 328 321 315 311 308 304 297 290 284 278 273 269 264 260 256 254 253 252 251 249 246 243 242 242 242 243 243 242 241 240 238 236 234 232 231 230 230 231 231 231 232 233 233 233 233 233 233 233 233 233 233 234 235 236 236 237 237
14 13 11 10 10 9 9 10 12 15 17 17 17 16 14 10 7 5 4 4 3 2 2 1 358 355 352 348 340 331 323 317 313 308 301 295 288 283 279 276 272 269 264 260 258 256 255 254 251 247 243 240 239 239 240 240 240 240 239 238 236 233 230 229 229 230 231 231 231 232 232 232 233 233 233 234 233 233 233 233 234 235 235 236 236
13 14 13 12 11 11 11 11 13 14 17 18 19 19 18 16 13 11 9 8 7 7 7 7 6 5 4 360 353 345 338 332 326 320 311 303 294 288 282 279 276 273 270 266 262 260 258 256 255 251 247 241 238 236 237 238 238 238 238 238 236 234 232 230 229 228 229 230 230 231 232 233 233 234 235 235 235 235 235 234 234 235 235 235 236
12 13 13 13 13 13 13 13 13 14 15 17 19 20 20 19 18 17 15 14 14 13 12 12 12 13 13 12 8 4 1 358 356 351 336 321 306 295 288 282 278 275 273 270 265 261 259 257 256 253 250 245 241 237 236 237 238 238 238 237 236 234 233 231 230 228 228 228 228 229 230 231 232 233 234 235 236 236 236 236 236 236 236 236 236
10 11 12 13 13 13 13 13 13 13 14 15 16 18 19 19 19 18 17 17 16 16 16 15 16 17 19 20 17 15 13 13 15 13 4 351 336 318 305 295 288 282 279 277 273 268 263 260 256 252 250 246 243 240 238 237 238 238 238 237 236 235 234 233 232 231 229 228 228 228 228 229 230 231 232 233 233 234 234 235 236 236 236 236 236
9 9 10 11 12 12 12 12 12 12 12 12 13 14 16 17 17 18 18 17 16 15 15 15 16 16 18 20 20 18 16 16 18 18 15 10 1 348 332 319 308 300 293 290 285 281 275 268 261 255 249 245 242 239 237 237 237 237 237 237 236 236 235 235 235 234 233 232 230 230 230 230 230 231 231 231 231 232 232 232 233 233 234 234 235
8 8 8 8 9 10 11 11 10 10 10 10 11 11 12 13 14 16 17 17 15 15 14 14 14 14 14 16 17 18 17 16 16 16 16 15 12 5 354 342 332 325 317 310 303 295 286 276 267 259 253 247 242 238 236 236 236 237 237 236 235 235 235 234 235 235 235 234 233 232 232 232 232 233 233 233 233 233 233 233 233 233 233 234 234
7 7 6 6 7 7 9 10 10 9 8 8 9 9 10 10 10 13 15 16 15 15 14 12 11 12 12 12 13 14 16 16 16 16 16 16 15 11 5 358 351 343 333 325 317 309 302 291 277 268 261 252 244 238 236 234 235 235 236 236 236 236 236 235 235 235 235 234 234 234 233 232 232 232 233 234 235 235 235 235 235 235 235 235 235
5 5 5 5 5 5 6 7 8 8 7 6 6 7 7 8 8 9 11 13 14 15 14 12 9 9 9 10 10 10 11 11 11 11 12 13 15 14 10 7 4 358 349 341 332 320 313 302 290 279 272 265 254 246 241 238 235 235 235 236 237 237 238 238 238 238 237 236 235 235 234 234 233 232 232 233 234 235 236 236 236 236 235 235 235
4 4 4 4 3 3 3 4 5 6 5 4 4 3 4 5 6 7 8 10 12 14 14 12 8 6 6 7 8 8 8 7 5 4 4 5 8 11 10 9 7 2 356 352 345 334 323 311 300 289 281 274 267 259 252 248 244 242 239 238 238 239 239 240 240 240 241 240 239 239 238 237 236 235 234 234 234 234 235 235 236 236 236 236 236
3 2 2 2 2 2 1 1 1 2 3 3 2 1 0 1 3 4 6 7 9 11 12 11 8 5 3 5 6 6 6 4 2 359 357 357 358 0 3 4 3 360 356 355 351 344 333 322 308 296 285 277 269 264 257 251 248 246 244 242 241 240 240 240 240 240 240 241 241 241 240 240 239 238 238 237 237 236 236 236 236 237 237 238 238
2 1 1 0 1 0 360 359 358 358 359 0 0 359 358 358 359 1 2 4 5 6 8 9 6 3 2 3 5 5 4 2 360 357 355 353 352 352 353 353 352 350 348 347 347 344 336 325 314 299 283 271 264 259 255 251 245 243 241 239 238 239 239 238 239 238 238 238 238 238 237 237 237 237 237 237 237 237 237 237 238 238 238 238 238
2 1 360 359 359 359 359 358 357 356 356 356 357 357 357 356 356 357 358 360 0 1 3 5 4 2 1 2 3 2 1 360 358 355 353 351 350 348 347 345 342 339 336 334 334 332 330 326 321 308 293 279 264 254 251 247 244 242 240 237 236 235 235 234 235 235 235 235 235 234 234 234 234 234 234 234 234 234 234 235 235 236 236 237 237
2 1 359 358 357 357 356 356 356 355 354 353 354 354 354 354 354 353 354 355 356 356 358 359 0 360 359 359 0 0 359 357 355 352 350 349 347 346 344 341 338 335 332 328 325 320 317 315 313 309 306 299 288 273 260 251 246 241 239 238 237 235 234 233 233 233 234 234 233 233 233 233 233 233 233 233 233 233 233 234 234 234 235 235 236
1 1 360 358 357 355 355 354 354 353 353 352 351 350 350 351 351 350 350 351 352 352 352 354 355 356 356 356 357 357 357 355 353 351 348 346 344 342 341 338 336 333 331 329 326 322 316 310 304 301 299 296 292 287 278 269 261 254 249 245 242 240 237 236 235 234 234 234 234 233 233 233 233 233 233 233 233 233 234 234 235 235 236 237 237
0 360 359 358 357 355 354 353 352 351 351 350 349 348 347 346 346 346 345 346 346 347 348 349 349 351 352 353 353 353 353 353 351 349 346 344 341 338 336 333 330 327 325 324 322 320 316 311 304 298 291 287 285 281 278 273 268 264 259 256 252 249 246 243 241 238 236 235 234 233 233 233 233 233 233 234 234 234 235 235 236 236 237 238 238
360 359 358 358 357 355 353 352 351 350 349 348 348 346 344 343 342 341 341 340 341 342 343 344 345 345 346 346 347 348 348 348 348 346 344 342 339 336 333 330 327 323 320 317 314 311 308 306 301 296 290 285 281 278 276 274 271 268 266 262 259 256 253 250 249 246 243 241 239 237 236 235 234 234 234 234 234 234 234 235 235 236 237 238 239
359 358 357 357 356 355 354 352 350 349 348 346 345 345 343 341 338 336 335 335 335 335 336 338 340 341 341 341 341 341 342 343 344 343 341 339 338 335 333 331 329 326 323 319 314 309 305 302 298 294 289 284 279 274 272 271 270 269 268 266 264 262 260 258 256 254 252 250 248 247 245 243 242 241 240 240 239 239 239 239 239 239 240 240 241
358 358 357 356 355 355 354 352 351 349 347 345 343 342 342 340 336 333 331 330 330 330 330 331 332 334 336 336 336 335 336 337 339 340 339 337 336 335 335 334 332 330 327 324 320 317 311 307 302 298 294 291 286 282 278 275 272 269 266 264 263 262 261 260 259 258 257 256 255 254 253 252 251 250 249 248 248 247 247 247 246 246 247 247 247
357 357 356 356 355 354 353 352 351 349 347 344 342 340 339 338 335 332 329 326 325 325 325 325 325 326 327 328 329 330 330 331 333 334 335 334 334 334 334 334 333 332 329 327 323 319 315 310 306 302 298 295 292 290 288 286 284 281 278 275 273 270 267 266 265 264 263 262 262 261 260 260 259 258 257 257 256 256 255 255 255 256 256 256 257
356 356 356 355 354 353 352 351 351 349 347 345 342 339 337 335 333 331 328 325 323 322 321 320 319 319 319 320 321 322 323 324 325 326 327 328 329 330 331 332 332 330 329 326 323 318 314 309 304 299 295 291 289 287 285 283 282 280 278 277 275 272 270 269 267 265 263 262 261 261 260 260 260 260 260 260 260 260 260 259 259 259 259 259 259
355 355 354 354 353 352 351 351 350 349 347 345 342 339 336 333 330 329 327 324 322 320 318 317 315 314 314 313 313 313 314 315 317 318 319 320 322 324 325 326 326 325 323 321 318 315 312 308 302 297 291 286 281 278 275 272 270 268 266 264 263 262 261 259 258 256 255 255 254 254 253 254 254 253 254 254 253 253 253 253 253 254 254 254 255
355 354 353 353 352 352 351 350 349 348 347 345 343 340 337 332 329 326 325 323 321 319 317 315 313 311 309 309 308 308 307 307 308 310 311 312 314 315 316 317 317 317 315 314 313 311 308 305 299 293 286 280 273 268 265 263 261 259 257 256 254 254 253 253 252 252 252 252 252 252 252 252 251 250 250 250 250 251 251 252 253 254 255 256 257